GFSFLT2_con_3kmhel_000.txt.gz
Helicity
66 63 25 18 16 29 33 34 41 44 51 46 56 78 131 134 162 210 227 227 234 230 200 136 139 132 139 104 86 105 99 72
83 34 43 18 21 30 47 40 52 54 62 62 57 101 91 97 110 150 173 186 195 253 302 291 201 164 111 129 99 102 94 93
94 92 117 92 49 87 70 49 40 32 41 39 22 27 22 61 109 84 109 129 119 161 195 205 227 243 224 129 143 99 93 107
94 66 95 75 46 115 120 99 57 33 48 24 25 77 83 83 84 83 75 77 117 171 186 146 178 194 231 220 177 152 102 96
85 74 76 84 148 95 68 30 40 60 76 86 58 51 53 52 60 60 70 73 52 60 63 87 187 319 215 140 160 153 200 149
105 90 102 93 86 147 156 139 104 126 89 80 63 49 59 58 74 62 51 44 43 68 75 74 66 141 111 70 51 58 136 128
133 117 79 60 105 133 152 160 159 124 116 105 110 113 104 71 95 71 73 65 63 68 71 79 77 68 92 56 -90 61 80 119
134 92 69 80 113 127 141 168 151 157 161 145 127 151 126 139 129 127 100 102 93 84 89 78 86 89 78 77 42 35 40 64
141 98 119 112 170 153 127 154 167 200 209 201 198 172 160 170 183 181 164 102 87 80 77 87 90 92 68 56 38 66 75 66
153 140 197 154 167 193 164 220 148 171 199 197 182 175 164 152 163 171 133 99 102 103 100 93 87 94 95 54 40 41 46 48
176 190 173 185 191 182 243 310 184 189 253 200 177 177 161 152 174 169 126 112 100 92 104 98 104 103 106 95 51 29 35 48
188 208 183 208 210 191 295 251 171 304 239 247 227 209 173 155 155 126 85 79 100 103 78 104 107 94 90 81 82 100 102 83
152 148 166 226 199 254 220 244 187 207 163 257 258 195 155 139 148 190 136 123 136 74 83 92 99 129 129 61 43 125 122 117
135 102 128 218 185 197 160 172 170 206 210 273 309 181 189 179 132 139 128 153 110 79 60 81 82 96 126 104 9 9 143 180
82 87 94 182 220 128 198 236 197 255 288 310 279 162 165 144 152 161 147 134 103 96 75 57 67 90 102 100 76 30 -12 86
132 50 93 113 235 263 142 262 305 204 162 173 173 212 139 137 165 164 195 218 178 124 96 98 93 83 99 94 104 103 38 -51
190 143 108 113 144 275 351 279 281 248 226 232 232 255 302 357 323 315 209 232 245 178 156 114 101 100 93 89 88 77 85 59
176 209 184 179 192 195 344 409 326 328 292 363 425 409 411 442 424 383 324 277 242 219 173 150 140 132 127 109 92 87 79 77
154 246 288 272 251 239 294 402 430 335 305 387 440 545 461 420 359 405 250 223 174 143 139 153 159 151 125 109 97 88 79 75
142 151 161 211 253 300 373 417 497 471 453 495 578 439 354 310 209 238 182 182 145 119 129 141 138 135 109 101 98 97 95 91

GFSFLT2_con_3kmhel_006.txt.gz
Helicity
37 15 -8 -13 8 27 48 82 109 107 109 114 103 97 95 89 82 72 71 62 50 39 20 18 24 58 46 8 31 -7 -69 -25
45 31 6 -3 11 28 54 64 93 81 78 81 78 85 70 61 66 55 51 57 68 60 54 58 59 66 74 45 36 45 55 54
96 101 65 49 67 89 97 86 71 75 62 91 84 67 61 56 51 56 45 53 76 97 108 114 107 81 58 54 36 25 45 49
130 123 102 105 103 139 84 114 81 66 68 82 68 72 68 73 72 78 85 83 64 46 58 73 65 54 45 50 50 54 66 81
151 94 81 127 124 101 92 116 95 75 87 100 107 100 94 98 99 101 112 101 90 77 51 30 30 20 31 58 94 96 106 113
110 64 90 126 107 86 89 118 123 121 110 133 131 126 126 121 121 114 110 104 99 90 90 73 55 45 41 40 47 75 73 97
111 116 88 122 116 118 147 174 185 182 176 168 161 161 147 126 119 123 123 128 132 124 109 88 67 53 50 47 43 43 59 67
170 151 101 120 114 104 129 161 201 211 199 200 195 184 163 148 148 141 148 144 139 142 140 122 103 85 65 55 51 45 28 39
216 164 136 122 127 117 122 132 176 190 185 197 196 191 186 184 187 174 157 154 151 145 127 122 122 107 91 82 71 49 37 -1
223 216 175 129 110 120 120 132 158 166 160 169 164 155 171 201 225 201 174 158 144 137 139 136 123 109 100 92 71 63 63 55
263 209 150 131 129 132 153 150 170 164 163 159 149 148 152 167 168 152 162 176 159 143 130 123 109 102 91 80 71 62 48 47
188 148 131 134 147 152 152 159 169 200 196 193 177 166 137 166 153 141 161 169 155 149 131 110 84 70 66 78 61 48 56 43
153 126 91 134 119 123 135 155 168 186 199 218 215 203 183 188 179 165 185 197 166 153 149 110 92 61 67 47 65 73 56 54
91 89 68 89 137 142 175 208 200 211 194 221 239 254 263 258 243 224 232 256 258 248 228 214 170 127 83 47 35 29 55 42
95 107 87 95 103 133 172 245 264 262 245 264 283 311 329 326 304 306 275 286 316 325 372 349 282 236 199 113 30 24 -8 -11
90 126 117 89 131 185 250 287 309 312 330 358 312 337 340 364 338 332 324 356 445 539 543 478 370 304 282 197 159 88 29 -21
116 152 134 114 150 194 269 289 351 332 349 345 343 382 420 418 430 491 555 589 589 505 390 452 355 305 344 178 139 92 52 64
177 189 185 164 136 122 251 254 286 327 290 348 421 508 516 431 571 668 673 658 694 645 545 383 264 336 381 161 113 93 70 75
233 185 128 92 86 150 149 199 207 218 228 297 479 661 719 597 641 702 712 745 622 613 494 615 299 298 212 182 138 118 114 102
239 260 167 144 116 161 141 156 167 155 166 253 450 583 686 782 783 824 726 450 522 469 485 208 140 141 176 166 144 133 114 123

GFSFLT2_con_3kmhel_009.txt.gz
Helicity
13 9 -3 10 20 55 71 77 86 83 66 61 61 65 62 53 44 40 21 6 4 3 -1 3 21 47 64 62 63 60 69 44
30 16 30 39 40 55 74 69 69 60 45 57 56 53 56 55 47 39 40 38 33 30 39 37 53 62 52 73 82 73 56 59
51 63 81 59 72 75 59 76 54 46 40 46 46 38 46 45 48 61 71 77 69 63 77 83 78 67 48 36 15 24 43 38
93 100 78 70 68 80 43 53 66 70 65 81 67 52 46 60 68 76 74 79 73 62 66 75 57 38 28 22 -8 -22 -50 -8
114 77 69 44 46 79 66 66 67 80 79 86 84 79 73 77 91 88 87 89 77 79 73 71 73 51 39 30 36 49 35 11
135 119 85 62 103 102 85 86 86 90 87 98 115 111 106 106 108 101 96 92 90 92 92 76 72 72 61 54 56 54 50 50
177 166 118 115 125 130 109 94 111 138 140 111 115 125 120 123 113 110 108 124 125 120 112 102 90 79 62 59 65 57 57 51
160 130 114 137 111 119 123 135 155 170 159 138 129 129 126 129 125 126 127 127 122 117 110 109 111 105 94 78 61 62 59 61
169 145 148 123 99 101 118 124 150 167 166 149 138 154 145 139 139 139 126 124 113 115 109 104 103 98 99 94 78 59 49 58
174 151 146 120 89 88 101 115 135 132 142 151 142 142 140 151 153 141 135 127 125 119 105 96 92 90 88 74 55 48 48 45
183 140 142 104 82 79 89 100 113 121 149 159 138 147 153 156 147 133 134 135 137 133 120 114 104 105 97 90 85 72 61 65
147 109 118 109 78 81 82 89 109 141 140 165 158 184 191 185 169 156 169 165 153 158 135 129 120 102 99 83 50 40 66 62
84 80 71 139 115 94 83 104 134 179 188 163 175 202 220 243 233 211 228 218 196 191 186 164 151 138 133 105 62 44 38 45
56 67 90 86 113 104 113 143 120 172 236 247 248 259 254 294 307 296 306 300 269 278 298 285 227 221 192 166 129 106 89 45
92 102 102 114 130 156 171 206 174 205 215 293 315 363 332 349 373 383 375 414 387 391 412 406 356 354 299 266 228 159 75 21
67 92 111 130 160 207 205 221 203 235 253 260 271 329 334 359 381 435 435 474 417 422 434 489 553 550 482 446 390 308 143 51
129 136 151 189 192 174 175 190 229 247 247 222 231 268 313 318 357 465 476 434 470 511 557 631 618 655 588 543 432 348 280 113
333 340 323 288 215 147 107 157 184 208 177 178 206 226 228 282 441 555 625 701 830 628 641 776 731 528 644 572 480 479 365 181
286 251 220 180 166 138 118 139 150 153 165 178 172 217 262 344 509 788 819 821 790 791 807 757 705 644 490 406 285 171 176 214
252 194 124 92 103 176 181 153 173 174 167 165 187 266 390 557 713 713 751 902 773 769 875 503 163 81 41 13 82 142 224 247

GFSFLT2_con_3kmhel_012.txt.gz
Helicity
-3 -2 5 17 20 25 42 47 50 37 24 18 36 41 26 12 14 23 39 45 54 55 51 29 48 79 113 130 116 121 112 102
3 5 19 33 30 41 37 39 33 26 23 40 58 56 44 33 26 26 34 46 52 49 39 39 55 71 77 103 113 114 103 84
10 28 50 61 51 43 27 25 25 29 34 52 60 51 43 38 37 49 58 64 62 62 64 64 67 68 68 62 76 70 76 71
33 69 74 67 44 55 54 32 40 43 51 56 57 57 53 52 52 57 58 59 68 79 77 71 68 55 48 47 18 17 40 62
80 99 82 57 41 53 61 64 62 54 57 66 63 60 61 65 64 68 69 75 73 77 73 64 60 55 55 50 36 25 13 19
93 86 71 53 42 64 79 84 81 73 70 76 78 79 79 76 81 81 85 86 82 82 77 66 66 63 59 56 62 64 58 49
101 92 73 63 62 84 102 92 98 101 106 109 107 94 93 97 92 92 90 90 90 88 92 89 72 56 56 63 61 59 69 72
108 109 105 101 89 95 76 81 93 118 126 120 114 117 121 124 117 112 110 105 95 89 81 82 87 75 64 53 48 53 48 53
139 128 110 103 101 91 76 75 95 104 101 99 105 118 127 133 131 127 120 124 119 112 102 95 88 89 88 79 74 61 38 36
138 115 98 86 83 60 53 63 77 84 89 113 117 121 128 142 153 142 135 150 152 146 128 117 107 98 92 88 75 57 36 35
143 83 55 75 66 59 73 71 78 77 90 133 147 153 154 174 184 163 159 174 175 173 158 165 151 119 95 88 84 76 67 59
129 67 49 65 87 114 118 96 93 92 79 116 156 202 210 236 224 206 217 213 194 198 176 174 167 148 138 118 108 98 94 59
93 81 76 97 120 135 117 115 108 124 122 130 184 221 248 277 295 278 288 281 234 242 239 199 174 182 185 164 149 122 113 93
58 54 89 116 175 196 169 144 140 124 137 128 183 239 261 302 328 353 369 358 312 288 330 299 250 267 245 235 179 162 179 128
65 77 98 149 165 167 174 169 168 166 145 173 182 215 203 253 282 332 379 433 399 368 387 410 344 380 343 302 257 204 189 191
64 86 132 183 196 190 180 165 162 171 183 205 175 157 157 186 235 282 311 376 420 463 471 491 489 472 462 441 418 389 295 210
181 210 256 241 203 159 153 151 177 200 199 174 167 158 137 133 164 201 282 364 396 432 495 535 627 601 650 620 515 559 475 298
256 254 238 222 159 120 98 104 144 118 130 140 132 137 129 133 152 233 322 411 487 647 807 878 822 849 806 702 718 706 708 620
241 202 168 111 84 71 108 121 106 116 135 136 124 134 177 226 295 403 512 579 651 713 733 749 800 674 871 675 504 522 389 329
131 100 72 50 90 124 130 128 115 105 101 100 149 220 247 290 373 408 401 413 460 477 505 525 525 422 360 120 138 76 82 105

GFSFLT2_con_3kmhel_015.txt.gz
Helicity
-3 0 4 15 12 17 22 32 44 36 15 6 23 29 24 19 16 15 20 31 41 46 57 63 64 73 80 89 108 120 107 104
5 4 8 16 16 30 25 21 28 33 30 32 38 35 28 26 16 22 30 39 45 45 51 58 67 70 74 85 101 96 108 101
-4 11 27 37 29 23 16 16 29 37 41 41 38 33 29 28 35 35 39 43 51 54 58 66 65 71 72 68 54 57 69 87
7 26 44 49 35 33 25 15 22 28 34 39 38 42 37 33 36 42 46 49 58 62 63 59 56 62 61 48 57 55 58 66
34 38 42 37 20 22 23 25 34 41 47 51 59 57 53 52 49 48 50 53 45 47 47 47 49 54 61 62 57 47 51 56
44 29 29 24 21 38 46 35 32 39 50 59 59 62 66 71 73 73 71 68 66 67 61 49 40 39 43 54 68 64 62 58
39 26 46 54 41 41 43 38 39 40 52 63 72 74 80 90 98 101 100 95 93 92 85 79 68 57 52 51 54 69 80 80
58 49 53 63 50 46 38 31 27 33 51 60 63 68 76 79 79 85 90 100 101 101 102 99 91 81 70 65 56 52 67 91
98 87 68 62 52 51 38 44 40 32 39 39 49 72 75 79 76 73 73 86 91 102 102 105 97 91 79 76 72 65 54 54
96 90 85 60 48 52 51 67 59 44 47 37 35 59 83 95 103 97 87 96 101 102 102 100 96 98 98 94 85 79 74 64
121 98 77 62 51 48 69 79 71 68 60 51 42 58 99 135 145 142 136 132 140 137 130 130 115 113 109 101 98 91 74 71
98 101 91 77 82 78 89 84 77 72 77 84 83 97 107 151 173 170 178 191 194 203 191 180 158 130 132 124 122 118 113 111
82 81 90 85 108 124 124 111 88 78 84 86 82 95 126 154 164 148 157 194 205 228 224 208 213 204 206 154 139 125 133 139
63 96 94 100 111 138 152 136 127 123 117 98 114 114 127 142 144 136 135 162 171 228 271 285 265 277 268 209 194 133 135 147
86 88 110 137 161 164 164 158 165 158 133 105 117 113 125 121 112 114 116 145 172 191 223 268 305 280 290 303 266 211 179 138
134 166 193 208 210 200 188 138 118 123 110 121 110 85 101 109 105 99 96 125 144 162 197 225 253 312 355 372 468 393 280 221
209 202 206 198 173 152 130 112 71 46 66 63 50 73 92 92 99 105 125 141 160 196 232 289 322 297 373 447 488 536 491 366
214 207 187 158 130 101 63 55 75 75 62 30 61 50 66 85 129 187 213 235 296 343 381 454 460 516 529 623 648 523 593 631
152 141 146 128 77 49 27 112 155 152 98 43 48 67 97 150 191 237 285 336 366 349 363 341 361 363 396 418 489 501 352 448
101 83 43 34 52 154 156 129 112 84 59 62 77 100 144 168 187 219 198 234 248 234 179 215 226 186 203 185 106 116 89 56